Simultaneous Nadir Overpasses (SNOs) Predictions

Prediction of SNOs between GOES-17 and METOP-C Satellite Orbit:

Table of predicted SNOs for the next 14.0 days since TLE Epoch: 10/15/2023
Index Date Time (GOES-17) GOES-17 Lat,Lon METOP-C Lat,Lon Distance(km) Time Diff (sec)
1 10/16/2023 04:33:47 0.02,-104.69 -0.24,-105.76 122.79 80
2 10/17/2023 04:10:28 0.02,-104.69 0.90,-100.78 445.92 80
3 10/18/2023 16:29:20 -0.00,-104.70 0.12,-105.33 71.59 80
4 10/19/2023 16:11:20 0.01,-104.70 -0.97,-100.33 497.52 80
5 10/21/2023 04:30:21 -0.01,-104.67 -0.06,-104.93 28.83 80
6 10/23/2023 16:28:33 0.02,-104.67 -0.03,-104.49 21.32 80
7 10/26/2023 04:24:15 -0.01,-104.65 0.12,-104.09 64.56 80
8 10/27/2023 16:43:06 -0.00,-104.66 0.88,-108.65 454.17 80
9 10/28/2023 16:25:07 -0.00,-104.66 -0.24,-103.65 115.13 80
